Location: Melrose
(37.7699°N, 122.2052°W)
Time: 01:25:26
(UTC+00:00)

Daily predictions for brighter satellites

Satellite Brightness Start Highest point End
(mag) Time Altitude Azimuth Time Altitude Azimuth Time Altitude Azimuth
CZ-4C R/B 3.1 01:44:01 10° NNW 01:51:32 89° ENE 01:59:55 10° SSE
CORIOLIS 4.2 01:48:48 10° SSE 01:54:09 89° WSW 01:59:32 10° NNW
COSMOS 2406 4.1 01:50:41 10° N 01:55:41 29° ENE 02:00:36 10° ESE
Lacrosse 5 rocket 1.4 01:53:38 10° NNW 01:57:19 49° NE 02:01:12 10° ESE
Cosmos 1470 4.4 01:54:01 10° SSW 01:57:46 40° W 02:01:32 10° N
Cosmos 1821 Rocket 3.9 01:53:19 10° N 01:59:26 70° E 02:05:34 10° SSE
Cosmos 1758 Rocket 3.7 01:55:50 10° N 02:00:19 89° W 02:04:48 10° S
Shenzhou-11 Module 3.2 01:59:10 10° WNW 02:01:38 28° N 02:04:06 10° ENE
OAO 2 Rocket 3.7 01:58:34 10° W 02:03:47 65° S 02:09:03 10° ESE
Nadezhda 3 Rocket 4.2 01:58:13 10° S 02:04:28 80° W 02:10:50 10° N
Cosmos 1844 Rocket 3.6 01:59:03 10° SW 02:04:33 53° WNW 02:10:05 10° NNE
BREEZE-M DEB (TANK) 3.1 01:58:04 10° SW 02:05:30 80° SE 02:08:17 10° ENE
Envisat 3.0 02:01:43 10° SSE 02:06:44 64° ENE 02:11:46 10° N
Cosmos 1328 4.4 02:05:52 10° NNE 02:09:30 33° ENE 02:13:05 10° SE
FengYun 1-2 T 4.4 02:04:11 10° SSE 02:09:40 55° ENE 02:15:08 10° N
Cosmos 1934 Rocket 4.2 02:03:44 10° N 02:09:56 54° E 02:16:08 10° SSE
Cosmos 1535 Rocket 4.5 02:09:07 10° N 02:15:14 60° E 02:21:15 10° SSE
Meteor 1-16 Rocket 4.1 02:10:45 10° S 02:16:21 83° E 02:21:49 10° N
YAOGAN 1 3.0 02:12:24 10° SE 02:16:27 41° ENE 02:20:31 10° N
SKYMED 2 3.5 02:12:45 10° NNE 02:17:07 85° ESE 02:21:27 10° SSW
BREEZE M DEB (TANK) 3.6 02:15:35 10° NNW 02:17:47 22° NE 02:20:31 14° E
ASTEX 1 3.3 02:13:47 10° N 02:18:45 76° E 02:23:43 10° S
Cosmos 1726 1.9 02:17:06 10° S 02:20:44 74° E 02:24:23 10° N
CZ-4 R/B 1.4 02:17:28 10° SSE 02:21:33 63° ENE 02:25:43 10° N
Cosmos 1242 Rocket 2.5 02:21:58 10° N 02:25:38 62° E 02:29:15 10° SSE
Cosmos 2278 Rocket 2.3 02:21:17 10° S 02:26:46 54° ESE 02:32:18 10° NNE
EO 1 Delta rocket 4.0 02:25:10 10° SSE 02:29:38 49° ENE 02:34:11 10° N
Cosmos 292 Rocket 3.8 02:24:54 10° SSW 02:29:39 82° WNW 02:34:25 10° NNE
ATLAS 5 CENTAUR R/B 4.3 02:29:22 10° WNW 02:31:45 14° NW 02:34:15 10° N
CZ-4 R/B 4.4 02:27:47 10° SSE 02:31:54 89° ENE 02:36:02 10° NNW
Cosmos 2228 4.4 02:28:22 10° SSW 02:32:31 42° W 02:36:41 10° N
Cosmos 1271 Rocket 3.9 02:28:49 10° NNW 02:32:41 49° W 02:36:32 10° S
CZ-2D R/B 3.9 02:29:41 10° SE 02:33:07 32° ENE 02:36:36 10° N
IUS-18 SRM-1 4.4 02:27:00 10° SW 02:33:10 21° S 02:35:42 11° SE
Abrixas rocket 2.7 02:37:38 10° WSW 02:40:38 49° NNW 02:42:11 24° NE
Cosmos 2058 Rocket 3.9 02:40:18 10° SSW 02:44:33 52° W 02:48:49 10° N
SL-4 R/B 2.6 02:43:05 10° WNW 02:46:45 47° SW 02:49:22 16° SSE
ADEOS Rocket 4.3 02:41:12 10° NE 02:47:08 24° E 02:52:42 10° SE
Lacrosse 5 3.5 02:44:18 10° NNW 02:47:45 18° NNE 02:48:50 17° NE
CSL-04 Rocket 3.7 02:43:04 10° SSE 02:48:38 87° WSW 02:54:10 10° NNW
Ariane Rocket 3.3 02:44:35 10° SE 02:49:23 44° ENE 02:54:13 10° N
Cosmos 839 Rocket 4.1 02:46:39 10° NNW 02:52:57 77° ENE 03:00:22 10° SSE
Unknown 3.5 02:51:39 10° NW 02:53:35 34° N 02:53:35 34° N
ATLAS 3B R/B 3.7 02:50:45 10° SSE 02:55:02 23° ESE 02:55:02 23° ESE
Cosmos 1703 3.5 02:52:03 10° NNW 02:55:58 68° W 02:59:50 10° S
YAOGAN 6 3.9 02:53:39 10° S 02:57:09 42° W 03:00:39 10° NNW
NOAA 11 4.1 02:52:00 10° SSE 02:57:22 65° ENE 03:02:45 10° N
CENTAUR R/B 3.6 03:02:50 10° SSE 03:05:27 22° SE 03:05:27 22° SE
OAO 3 Rocket 3.4 03:04:15 10° W 03:09:08 62° S 03:10:26 45° SE
Cosmos 1833 Rocket 2.7 03:06:05 10° NNW 03:11:36 55° ENE 03:13:04 43° ESE
Cosmos 1777 Rocket 4.0 03:09:37 10° NNW 03:14:51 83° WSW 03:19:06 15° SSE
USA 238 DEB 3.6 03:13:33 10° SSW 03:20:13 86° WNW 03:26:24 13° NNE
USA 238 3.6 03:13:39 10° SSW 03:20:19 86° WNW 03:26:27 14° NNE
MINOTAUR IV R/B 4.4 03:16:47 10° NNW 03:21:21 82° ENE 03:21:50 70° SE
BREEZE-M DEB (TANK) 3.7 03:15:48 10° WSW 03:26:31 52° NW 03:27:57 36° NNE
H-2A R/B 3.7 03:30:03 22° NNE 03:30:03 22° NNE 03:32:13 10° N
USA 234 3.8 03:30:45 37° SE 03:30:45 37° SE 03:35:54 10° SSW
Cosmos 1939 Rocket 3.8 03:30:24 21° SSW 03:32:47 47° W 03:36:40 10° NNW
Cosmos 2082 Rocket 2.3 03:28:53 10° NNW 03:34:04 56° NE 03:34:04 56° NE
Gbstr 26 Del rocket 4.5 03:29:33 10° NW 03:35:52 50° NNE 03:36:50 47° NE
Lacrosse 5 rocket 4.0 03:33:44 10° W 03:36:11 16° WSW 03:38:40 10° SSW
Cosmos 1461 4.3 03:34:27 10° NNW 03:36:36 29° NNW 03:36:36 29° NNW
Cosmos 1459 Rocket 3.8 03:35:35 10° N 03:41:47 69° E 03:41:49 69° E
NOSS 3-2 (A) 3.6 03:40:14 10° SW 03:45:51 66° NW 03:48:45 32° NNE
OAO 2 Rocket 4.2 03:43:23 10° W 03:48:06 41° SSW 03:48:06 41° SSW
NOSS 3-3 (A) 4.5 03:49:09 10° NNW 03:56:46 65° NE 03:57:04 64° ENE
NOSS 3-3 (C) 4.5 03:49:15 10° NNW 03:56:52 64° NE 03:57:08 64° ENE
Cosmos 1802 Rocket 4.2 03:56:54 10° N 04:02:07 61° N 04:02:07 61° N
Cosmos 2173 Rocket 4.0 03:59:16 10° N 04:05:20 76° WNW 04:05:20 76° WNW
NOSS 3-2 (C) 3.7 04:03:29 10° SW 04:08:11 59° WSW 04:08:11 59° WSW
Cosmos 2278 Rocket 4.5 04:06:57 10° WSW 04:11:11 21° NW 04:15:27 10° N
Lacrosse 5 4.0 04:26:21 10° NW 04:28:02 21° NW 04:28:02 21° NW
ADEOS Rocket 3.8 04:25:30 10° N 04:33:03 62° WNW 04:40:00 10° SSW
ATLAS 3B R/B 4.1 04:39:21 10° SW 04:42:24 28° SW 04:42:24 28° SW
ATLAS 2AS CENTAUR R/B 4.2 10:46:56 35° ESE 10:47:13 35° ESE 10:54:17 10° NE
Cosmos 2333 Rocket 3.5 11:25:34 35° NE 11:25:34 35° NE 11:28:47 10° NNE
USA 267 4.0 11:22:13 10° NE 11:26:52 41° N 11:26:52 41° N
Cosmos 2181 Rocket 4.3 11:43:33 10° N 11:49:52 67° E 11:56:03 10° SSE
Cosmos 2219 Rocket 3.0 11:52:28 40° N 11:52:28 40° N 11:56:03 10° NNE
IDEFIX/ARIANE 42P 3.0 11:46:47 10° NNE 11:51:05 59° NE 11:51:05 59° NE
